SKYNET 5D

Last updated on Mon Sep 21 2026 00:02:58 GMT+0000 (Coordinated Universal Time)

1 39034U 12075A 26263.57293505 .00000095 00000+0 00000+0 0 9991 2 39034 0.0717 351.0076 0003847 191.2823 76.1944 1.00270609 50119
UTC large
Height (km)
Speed (km/s)
/
Latitude / Longitude
Inclination (degrees)
Orbital Period (minutes)
Azimuth
Elevation
Range (km)
Doppler Factor

Next 0 passes for location: London (51.5072 / 0.1276)

No passes found over London.
SKYNET 5D